Location: Hackbridge
(51.3833°N, 0.1500°W)
Time: 01:02:35
(UTC+00:00)

STARLINK-35 - Pass Details

Date: 13 October 2019
Orbit: 548 x 551 km, 53.0° (Epoch: 18 November)

Event Time Altitude Azimuth Distance (km) Brightness Sun altitude
Rises 19:05:35 0° 237° (WSW) 2,710 7.9 -18.4°
Reaches altitude 10° 19:07:50 10° 234° (SW) 1,819 6.8 -18.7°
Maximum altitude 19:11:54 61° 154° (SSE) 626 3.6 -19.4°
Enters shadow 19:12:33 53° 111° (ESE) 681 3.6 -19.4°
